Location: *
(46.1006°N, 1.8394°E)
Time: 05:19:14
(UTC+00:00)

Resurs 01 Rocket - Pass Details

Date: 20 September 2019
Orbit: 635 x 644 km, 98.0° (Epoch: 22 October)

Event Time Altitude Azimuth Distance (km) Brightness Sun altitude
Exits shadow 21:30:38 17° 274° (W) 1,642 4.1 -34.3°
Drops below altitude 10° 21:33:12 10° 310° (NW) 2,045 5.0 -34.6°
Sets 21:36:10 0° 331° (NNW) 2,962 6.0 -35.0°
